EW4785 Weather Reports


Display with metric or nautical units.
time (UTC)temp
F
wind
direction
speed
MPH
gust
MPH
rain 1hr
in
rain 24hr
in
rain mn
in
humidity
%
barometer
mb
20260509181534 70 259 3.0 10.0 0.00 0.00 0.00 72 1011.1
20260509180033 69 183 3.0 9.0 0.00 0.00 0.00 73 1011.2
20260509174532 70 175 4.0 10.0 0.00 0.00 0.00 72 1011.4
20260509173033 69 182 3.0 10.0 0.00 0.00 0.00 75 1011.4
20260509171533 68 203 3.0 9.0 0.00 0.00 0.00 75 1011.6
20260509170028 69 120 3.0 9.0 0.00 0.00 0.00 72 1011.8
20260509164526 69 154 4.0 10.0 0.00 0.00 0.00 70 1011.9
20260509163024 69 189 3.0 9.0 0.00 0.00 0.00 69 1012.1
20260509161523 70 174 3.0 9.0 0.00 0.00 0.00 68 1012.3
20260509160024 68 159 3.0 11.0 0.00 0.00 0.00 69 1012.2
20260509154521 69 222 4.0 9.0 0.00 0.00 0.00 67 1012.4
20260509153026 68 173 3.0 12.0 0.00 0.00 0.00 69 1012.5
20260509151516 67 188 2.0 9.0 0.00 0.00 0.00 70 1012.3
20260509150018 67 170 2.0 7.0 0.00 0.00 0.00 71 1012.3
20260509144513 65 117 1.0 10.0 0.00 0.00 0.00 72 1012.5
20260509143016 65 232 1.0 6.0 0.00 0.00 0.00 75 1012.8
20260509141503 63 184 1.0 6.0 0.00 0.00 0.00 78 1013.2
20260509140113 61 132 1.0 7.0 0.00 0.00 0.00 81 1013.2
20260509134558 61 215 1.0 7.0 0.00 0.00 0.00 80 1013.9
20260509133102 60 163 3.0 8.0 0.00 0.00 0.00 82 1014.0
20260509131557 58 144 3.0 7.0 0.00 0.00 0.00 86 1014.0
20260509130057 57 152 2.0 6.0 0.00 0.00 0.00 88 1014.2
20260509124547 56 173 0.0 3.0 0.00 0.00 0.00 91 1014.0
20260509123044 55 167 0.0 3.0 0.00 0.00 0.00 92 1013.9
20260509121556 54 214 0.0 5.0 0.00 0.00 0.00 94 1013.8
20260509120038 53 197 0.0 3.0 0.00 0.00 0.00 95 1013.4
20260509114536 51 197 0.0 2.0 0.00 0.00 0.00 96 1013.4
20260509113035 50 197 0.0 2.0 0.00 0.00 0.00 96 1013.9
20260509111535 49 197 0.0 0.0 0.00 0.00 0.00 96 1013.8
20260509110033 48 197 0.0 0.0 0.00 0.00 0.00 95 1013.4
20260509104533 48 197 0.0 1.0 0.00 0.00 0.00 95 1013.2
20260509103035 47 197 0.0 1.0 0.00 0.00 0.00 94 1013.2
20260509101531 48 197 0.0 1.0 0.00 0.00 0.00 93 1012.8
20260509100031 48 197 0.0 0.0 0.00 0.00 0.00 93 1012.9
20260509094525 48 197 0.0 0.0 0.00 0.00 0.00 92 1012.7
20260509093023 49 197 0.0 0.0 0.00 0.00 0.00 92 1012.9
20260509091521 49 197 0.0 0.0 0.00 0.00 0.00 91 1013.2
20260509090019 50 197 0.0 0.0 0.00 0.00 0.00 90 1012.9
20260509084520 50 197 0.0 0.0 0.00 0.00 0.00 91 1013.1
20260509083015 50 197 0.0 0.0 0.00 0.00 0.00 89 1013.2
20260509081513 50 197 0.0 0.0 0.00 0.00 0.00 88 1013.4
20260509080011 51 197 0.0 2.0 0.00 0.00 0.00 86 1013.5
20260509074509 51 197 0.0 1.0 0.00 0.00 0.00 86 1013.6
20260509073007 51 197 0.0 2.0 0.00 0.00 0.00 84 1013.5
20260509071504 52 197 0.0 2.0 0.00 0.00 0.00 82 1013.6
20260509070004 52 197 0.0 2.0 0.00 0.00 0.00 81 1013.8
20260509064503 52 197 0.0 1.0 0.00 0.00 0.00 80 1013.6
20260509063111 53 197 0.0 2.0 0.00 0.00 0.00 80 1014.0
20260509061558 53 197 0.0 2.0 0.00 0.00 0.00 80 1014.4
20260509054611 52 197 0.0 1.0 0.00 0.00 0.00 79 1014.6
20260509053132 53 197 0.0 1.0 0.00 0.00 0.00 79 1014.7
20260509051551 53 197 0.0 1.0 0.00 0.00 0.00 79 1015.1
20260509050051 53 197 0.0 0.0 0.00 0.00 0.00 78 1015.3
20260509044551 53 197 0.0 0.0 0.00 0.00 0.00 78 1015.4
20260509043104 52 197 0.0 1.0 0.00 0.00 0.00 80 1015.2
20260509041558 52 197 0.0 0.0 0.00 0.00 0.00 81 1015.1
20260509040050 53 197 0.0 0.0 0.00 0.00 0.00 80 1014.9
20260509034559 53 197 0.0 0.0 0.00 0.00 0.00 81 1015.2
20260509033042 53 197 0.0 0.0 0.00 0.00 0.00 79 1015.1
20260509031540 53 197 0.0 0.0 0.00 0.00 0.00 76 1015.1
20260509030040 53 197 0.0 0.0 0.00 0.00 0.00 76 1015.3
20260509024540 53 197 0.0 0.0 0.00 0.00 0.00 76 1015.2
20260509023039 53 197 0.0 0.0 0.00 0.00 0.00 76 1015.4
20260509021539 54 197 0.0 0.0 0.00 0.00 0.00 78 1015.6
20260509020050 54 197 0.0 0.0 0.00 0.00 0.00 77 1015.5
20260509014537 55 197 0.0 0.0 0.00 0.00 0.00 77 1015.5
20260509013047 55 197 0.0 0.0 0.00 0.00 0.00 74 1015.3
20260509011537 56 197 0.0 0.0 0.00 0.00 0.00 73 1015.2
20260509010049 56 197 0.0 0.0 0.00 0.00 0.00 71 1015.2
20260509004535 58 197 0.0 0.0 0.00 0.00 0.00 69 1015.1
20260509003035 59 197 0.0 0.0 0.00 0.00 0.00 66 1015.0
20260509001534 60 197 0.0 0.0 0.00 0.00 0.00 61 1014.8
20260509000034 61 197 0.0 0.0 0.00 0.00 0.00 58 1014.8
20260508234536 63 197 0.0 0.0 0.00 0.00 0.00 53 1014.8
20260508233033 65 196 0.0 0.0 0.00 0.00 0.00 51 1014.9
20260508231532 66 196 0.0 3.0 0.00 0.00 0.00 44 1015.1
20260508230044 67 177 1.0 4.0 0.00 0.00 0.00 42 1014.9
20260508224538 67 183 1.0 5.0 0.00 0.00 0.00 40 1014.7
20260508223036 68 161 1.0 5.0 0.00 0.00 0.00 39 1014.9
20260508221542 68 200 1.0 4.0 0.00 0.00 0.00 39 1014.7
20260508220033 68 194 1.0 4.0 0.00 0.00 0.00 39 1014.5
20260508214530 68 170 1.0 5.0 0.00 0.03 0.00 37 1014.7
20260508213029 69 199 1.0 5.0 0.00 0.03 0.00 40 1014.8
20260508211528 69 240 1.0 4.0 0.00 0.03 0.00 37 1014.7
20260508210029 69 199 0.0 4.0 0.00 0.03 0.00 37 1014.9
20260508204528 69 180 1.0 7.0 0.00 0.06 0.00 33 1015.0
20260508203027 70 297 0.0 8.0 0.00 0.06 0.00 37 1015.3
20260508201528 70 147 1.0 6.0 0.00 0.06 0.00 36 1015.4
20260508200026 70 111 2.0 7.0 0.00 0.06 0.00 35 1015.4
20260508194526 70 238 1.0 4.0 0.00 0.06 0.00 34 1015.3
20260508193024 70 171 1.0 5.0 0.00 0.06 0.00 34 1015.8
20260508191522 69 223 2.0 5.0 0.00 0.06 0.00 34 1015.9
20260508190021 69 208 1.0 5.0 0.00 0.06 0.00 33 1016.3
20260508184523 69 236 2.0 7.0 0.00 0.06 0.00 32 1016.6
20260508183018 69 225 1.0 3.0 0.00 0.06 0.00 39 1016.7